Tracking 25198 objects as of 16-Jan-2022
HD Live streaming from Space Station
objects crossing your sky now

THOR ABLESTAR DEB

Track THOR ABLESTAR DEB now!
10-day predictions


NORAD ID: 652
Int'l Code: 1961-015HD
Perigee: 809.2 km
Apogee: 925.2 km
Inclination: 66.7 °
Period: 102.1 minutes
Semi major axis: 7238 km
RCS: 0.0233 m2 (small)
Launch date: June 29, 1961
Source: United States (US)
Launch site: AIR FORCE EASTERN TEST RANGE (AFETR)

Note: This is SATELLITE DEBRIS
aabbcc
Your satellite tracking list
Your tracking list is empty




NASA's NSSDC Master Catalog

Two Line Element Set (TLE):
1 00652U 61015HD  22015.80115961  .00000511  00000-0  32669-3 0  9993
2 00652  66.6946 256.2355 0080136  51.3142 309.5078 14.09808350 65791
Source of the keplerian elements: AFSPC